• Em Portugal
  • Lista de países
  • Para 7 dias
  • Temperatura da água
  • Mapas de satélite
  • Mapa do tempo
  • Widgets de tempo
  • user-avatar
    Iniciar Sessão

    Previsão horária em Setserleg

    Hoje, 24 Fevereiro, Sábado

    Tempo Temperatura Precipitação Vento Pressão Humidade
    00:00 -16°C° 0 mm 2 m/s 608 mmHg 73%
    01:00 -16°C° 0 mm 2 m/s 608 mmHg 73%
    02:00 -16°C° 0 mm 2 m/s 608 mmHg 72%
    03:00 -16°C° 0 mm 2 m/s 608 mmHg 71%
    04:00 -17°C° 0 mm 2 m/s 608 mmHg 70%
    05:00 -17°C° 0 mm 2 m/s 608 mmHg 70%
    06:00 -17°C° 0 mm 2 m/s 608 mmHg 69%
    07:00 -16°C° 0 mm 3 m/s 609 mmHg 66%
    08:00 -15°C° 0 mm 3 m/s 609 mmHg 66%
    09:00 -13°C° 0 mm 2 m/s 609 mmHg 66%
    10:00 -10°C° 0 mm 2 m/s 610 mmHg 67%
    11:00 -9°C° 0 mm 2 m/s 610 mmHg 62%
    12:00 -6°C° 0 mm 1 m/s 610 mmHg 57%
    13:00 -3°C° 0 mm 1 m/s 610 mmHg 53%
    14:00 -4°C° 0 mm 1 m/s 609 mmHg 57%
    15:00 -4°C° 0 mm 1 m/s 609 mmHg 62%
    16:00 -4°C° 0 mm 1 m/s 608 mmHg 66%
    17:00 -7°C° 0 mm 1 m/s 608 mmHg 66%
    18:00 -9°C° 0 mm 2 m/s 607 mmHg 67%
    19:00 -12°C° 0 mm 2 m/s 607 mmHg 67%
    20:00 -12°C° 0 mm 2 m/s 607 mmHg 66%
    21:00 -12°C° 0 mm 2 m/s 606 mmHg 65%
    22:00 -13°C° 0 mm 2 m/s 606 mmHg 64%
    23:00 -13°C° 0 mm 2 m/s 606 mmHg 63%

    Amanhã, 25 Fevereiro, Domingo

    Tempo Temperatura Precipitação Vento Pressão Humidade
    00:00 -13°C° 0 mm 2 m/s 606 mmHg 62%
    01:00 -13°C° 0 mm 2 m/s 605 mmHg 61%
    02:00 -13°C° 0 mm 2 m/s 605 mmHg 61%
    03:00 -13°C° 0 mm 2 m/s 605 mmHg 60%
    04:00 -12°C° 0 mm 2 m/s 605 mmHg 60%
    05:00 -12°C° 0 mm 2 m/s 605 mmHg 60%
    06:00 -12°C° 0 mm 2 m/s 605 mmHg 61%
    07:00 -12°C° 0 mm 2 m/s 605 mmHg 61%
    08:00 -10°C° 0 mm 2 m/s 606 mmHg 62%
    09:00 -9°C° 0 mm 2 m/s 606 mmHg 63%
    10:00 -7°C° 0 mm 2 m/s 607 mmHg 65%
    11:00 -7°C° 0 mm 3 m/s 607 mmHg 63%
    12:00 -7°C° 0 mm 5 m/s 607 mmHg 61%
    13:00 -5°C° 0 mm 6 m/s 607 mmHg 59%
    14:00 -6°C° 0 mm 5 m/s 607 mmHg 62%
    15:00 -6°C° 0 mm 5 m/s 606 mmHg 64%
    16:00 -7°C° 0 mm 4 m/s 606 mmHg 67%
    17:00 -8°C° 0 mm 4 m/s 607 mmHg 69%
    18:00 -9°C° 0 mm 3 m/s 607 mmHg 72%
    19:00 -12°C° 0 mm 3 m/s 607 mmHg 75%
    20:00 -12°C° 0 mm 2 m/s 608 mmHg 76%
    21:00 -13°C° 0 mm 2 m/s 608 mmHg 77%
    22:00 -13°C° 0 mm 2 m/s 608 mmHg 77%
    23:00 -14°C° 0 mm 2 m/s 609 mmHg 78%

    Depois de amanhã, 26 Fevereiro, Segunda-feira

    Tempo Temperatura Precipitação Vento Pressão Humidade
    00:00 -13°C° 0 mm 1 m/s 609 mmHg 78%
    01:00 -13°C° 0 mm 1 m/s 609 mmHg 79%
    02:00 -13°C° 0 mm 1 m/s 609 mmHg 79%
    03:00 -14°C° 0 mm 1 m/s 609 mmHg 79%
    04:00 -14°C° 0 mm 1 m/s 609 mmHg 79%
    05:00 -14°C° 0 mm 1 m/s 609 mmHg 79%
    06:00 -14°C° 0 mm 1 m/s 609 mmHg 78%
    07:00 -15°C° 0 mm 1 m/s 609 mmHg 78%
    08:00 -13°C° 0 mm 1 m/s 609 mmHg 75%
    09:00 -12°C° 0 mm 1 m/s 610 mmHg 73%
    10:00 -10°C° 0 mm 1 m/s 610 mmHg 70%
    11:00 -9°C° 0 mm 1 m/s 610 mmHg 67%
    12:00 -8°C° 0 mm 2 m/s 609 mmHg 64%
    13:00 -7°C° 0 mm 2 m/s 609 mmHg 61%
    14:00 -7°C° 0 mm 2 m/s 608 mmHg 65%
    15:00 -7°C° 0 mm 2 m/s 608 mmHg 69%
    16:00 -7°C° 0 mm 2 m/s 608 mmHg 73%
    17:00 -8°C° 0 mm 2 m/s 608 mmHg 75%
    18:00 -10°C° 0 mm 2 m/s 607 mmHg 76%
    19:00 -12°C° 0 mm 2 m/s 607 mmHg 77%
    20:00 -13°C° 0 mm 2 m/s 607 mmHg 77%
    21:00 -13°C° 0 mm 2 m/s 608 mmHg 77%
    22:00 -14°C° 0 mm 2 m/s 608 mmHg 76%
    23:00 -14°C° 0 mm 2 m/s 607 mmHg 76%

    27 Fevereiro, Terça-feira

    Tempo Temperatura Precipitação Vento Pressão Humidade
    00:00 -15°C° 0 mm 2 m/s 607 mmHg 75%
    01:00 -15°C° 0 mm 2 m/s 607 mmHg 75%
    02:00 -15°C° 0 mm 2 m/s 607 mmHg 74%
    03:00 -15°C° 0 mm 2 m/s 606 mmHg 74%
    04:00 -16°C° 0 mm 2 m/s 606 mmHg 73%
    05:00 -16°C° 0 mm 2 m/s 606 mmHg 72%
    06:00 -16°C° 0 mm 2 m/s 606 mmHg 71%
    07:00 -16°C° 0 mm 2 m/s 605 mmHg 71%
    08:00 -14°C° 0 mm 2 m/s 605 mmHg 69%
    09:00 -11°C° 0 mm 1 m/s 605 mmHg 68%
    10:00 -9°C° 0 mm 1 m/s 605 mmHg 66%
    11:00 -9°C° 0 mm 2 m/s 605 mmHg 65%
    12:00 -9°C° 0 mm 3 m/s 604 mmHg 63%
    13:00 -7°C° 0 mm 3 m/s 604 mmHg 62%
    14:00 -8°C° 0,1 mm 3 m/s 603 mmHg 68%
    15:00 -8°C° 0,1 mm 3 m/s 602 mmHg 74%
    16:00 -9°C° 0,1 mm 3 m/s 602 mmHg 81%
    17:00 -10°C° 0,1 mm 3 m/s 602 mmHg 84%
    18:00 -12°C° 0,1 mm 3 m/s 602 mmHg 87%
    19:00 -12°C° 0,1 mm 3 m/s 603 mmHg 90%
    20:00 -13°C° 0 mm 3 m/s 603 mmHg 86%
    21:00 -15°C° 0 mm 4 m/s 603 mmHg 83%
    22:00 -16°C° 0 mm 4 m/s 603 mmHg 79%
    23:00 -16°C° 0 mm 4 m/s 603 mmHg 79%

    28 Fevereiro, Quarta-feira

    Tempo Temperatura Precipitação Vento Pressão Humidade
    00:00 -17°C° 0 mm 4 m/s 603 mmHg 78%
    01:00 -16°C° 0 mm 3 m/s 603 mmHg 78%
    02:00 -17°C° 0 mm 3 m/s 603 mmHg 78%
    03:00 -18°C° 0 mm 3 m/s 603 mmHg 78%
    04:00 -19°C° 0 mm 3 m/s 603 mmHg 77%
    05:00 -19°C° 0 mm 3 m/s 604 mmHg 78%
    06:00 -21°C° 0 mm 3 m/s 604 mmHg 78%
    07:00 -19°C° 0 mm 2 m/s 604 mmHg 78%
    08:00 -19°C° 0 mm 3 m/s 605 mmHg 73%
    09:00 -17°C° 0 mm 3 m/s 605 mmHg 67%
    10:00 -16°C° 0 mm 3 m/s 606 mmHg 62%
    11:00 -16°C° 0 mm 4 m/s 606 mmHg 58%
    12:00 -15°C° 0 mm 4 m/s 605 mmHg 53%
    13:00 -14°C° 0 mm 5 m/s 605 mmHg 48%
    14:00 -12°C° 0 mm 4 m/s 605 mmHg 53%
    15:00 -12°C° 0 mm 3 m/s 604 mmHg 57%
    16:00 -10°C° 0 mm 2 m/s 604 mmHg 61%
    17:00 -12°C° 0 mm 2 m/s 603 mmHg 62%
    18:00 -14°C° 0 mm 2 m/s 603 mmHg 63%
    19:00 -15°C° 0 mm 2 m/s 602 mmHg 64%
    20:00 -16°C° 0 mm 2 m/s 602 mmHg 65%
    21:00 -16°C° 0 mm 2 m/s 602 mmHg 66%
    22:00 -16°C° 0 mm 2 m/s 602 mmHg 67%
    23:00 -16°C° 0 mm 2 m/s 601 mmHg 67%

    1 Março, Quinta-feira

    Tempo Temperatura Precipitação Vento Pressão Humidade
    00:00 -16°C° 0 mm 2 m/s 601 mmHg 67%
    01:00 -16°C° 0 mm 2 m/s 600 mmHg 67%
    02:00 -14°C° 0 mm 1 m/s 600 mmHg 67%
    03:00 -15°C° 0 mm 1 m/s 600 mmHg 67%
    04:00 -15°C° 0 mm 1 m/s 599 mmHg 67%
    05:00 -14°C° 0 mm 1 m/s 599 mmHg 68%
    06:00 -14°C° 0 mm 1 m/s 599 mmHg 68%
    07:00 -14°C° 0 mm 1 m/s 599 mmHg 69%
    08:00 -13°C° 0 mm 1 m/s 599 mmHg 71%
    09:00 -12°C° 0 mm 1 m/s 599 mmHg 72%
    10:00 -11°C° 0 mm 1 m/s 600 mmHg 73%
    11:00 -13°C° 0,1 mm 2 m/s 599 mmHg 78%
    12:00 -13°C° 0,1 mm 2 m/s 599 mmHg 82%
    13:00 -14°C° 0,1 mm 3 m/s 598 mmHg 86%
    14:00 -14°C° 0,3 mm 3 m/s 598 mmHg 87%
    15:00 -14°C° 0,3 mm 3 m/s 598 mmHg 89%
    16:00 -15°C° 0,3 mm 3 m/s 598 mmHg 90%
    17:00 -16°C° 0,2 mm 3 m/s 599 mmHg 91%
    18:00 -16°C° 0,2 mm 2 m/s 600 mmHg 92%
    19:00 -16°C° 0,2 mm 2 m/s 600 mmHg 92%
    20:00 -19°C° 0,1 mm 3 m/s 601 mmHg 88%
    21:00 -22°C° 0,1 mm 5 m/s 602 mmHg 84%
    22:00 -26°C° 0,1 mm 6 m/s 603 mmHg 80%
    23:00 -26°C° 0 mm 5 m/s 603 mmHg 80%
    Mostrar mais